Weather History for KSAZ - January, 2014

Change the Weather History Date:

Friday, January 31, 2014

  Actual Average Record
Temperature  
Mean Temperature -6 °F -  
Max Temperature 8 °F 20 °F 44 °F (2009)
Min Temperature -20 °F 4 °F -29 °F (2004)
Degree Days  
Heating Degree Days 71    
Moisture  
Dew Point -12 °F    
Average Humidity 78    
Maximum Humidity 92    
Minimum Humidity 56    
Precipitation  
Precipitation 0.00 in - - ()
Sea Level Pressure  
Sea Level Pressure 29.94 in    
Wind  
Wind Speed 5 mph (SSW)    
Max Wind Speed 13 mph    
Max Gust Speed 17 mph    
Visibility 10 miles    
Events      
Averages and records for this station are not official NWS values.
T = Trace of Precipitation, MM = Missing Value Source: NWS Daily Summary

Daily Weather History Graph

Daily Weather History Graph

Search for Another Location

Airport or City:

Trip Planner

Search our weather history database for the weather conditions in past years. The results will help you decide how hot, cold, wet, or windy it might be!

Date:

Astronomy

Jan. 31, 2014 Rise Set
Actual Time 7:43 AM CST 5:22 PM CST
Civil Twilight 7:11 AM CST 5:54 PM CST
Nautical Twilight 6:35 AM CST 6:30 PM CST
Astronomical Twilight 6:00 AM CST 7:06 PM CST
Moon 7:47 AM CST (1/31) 6:55 PM CST (1/31)
Length of Visible Light 10h 43m
Length of Day
9h 38m
New Moon, 1% of the Moon is Illuminated
Jan 31
New Moon
Feb 6
First Quarter
Feb 14
Full
Feb 22
Last Quarter
Mar 1
New

Hourly Weather History & Observations

Time (CST) Temp. Windchill Dew Point Humidity Pressure Visibility Wind Dir Wind Speed Gust Speed Precip Events Conditions
12:13 AM -14.8 °F -24.8 °F -18.4 °F 84% 29.96 in 10.0 mi SW 3.5 mph - N/A   Clear
12:34 AM -14.8 °F -27.2 °F -18.4 °F 84% 29.96 in 10.0 mi SW 4.6 mph - N/A   Clear
12:53 AM -14.8 °F -27.2 °F -18.4 °F 84% 29.97 in 10.0 mi SW 4.6 mph - N/A   Clear
1:13 AM -14.8 °F -27.2 °F -18.4 °F 84% 29.97 in 10.0 mi SW 4.6 mph - N/A   Clear
1:34 AM -14.8 °F -27.2 °F -18.4 °F 84% 29.98 in 10.0 mi SW 4.6 mph - N/A   Clear
1:53 AM -16.6 °F - -20.2 °F 84% 29.97 in 10.0 mi Calm Calm - N/A   Clear
2:13 AM -16.6 °F - -20.2 °F 84% 29.98 in 10.0 mi Calm Calm - N/A   Clear
2:34 AM -16.6 °F -26.8 °F -20.2 °F 84% 29.98 in 10.0 mi WSW 3.5 mph - N/A   Clear
2:53 AM -18.4 °F -28.9 °F -22.0 °F 84% 29.98 in 10.0 mi SW 3.5 mph - N/A   Scattered Clouds
3:13 AM -18.4 °F -28.9 °F -22.0 °F 84% 29.98 in 10.0 mi SSW 3.5 mph - N/A   Scattered Clouds
3:34 AM -18.4 °F -28.9 °F -22.0 °F 84% 29.97 in 10.0 mi WSW 3.5 mph - N/A   Clear
3:53 AM -18.4 °F -31.4 °F -23.8 °F 76% 29.97 in 10.0 mi SW 4.6 mph - N/A   Clear
4:13 AM -16.6 °F -29.3 °F -18.4 °F 92% 29.97 in 10.0 mi WSW 4.6 mph - N/A   Clear
4:34 AM -16.6 °F -26.8 °F -20.2 °F 84% 29.97 in 10.0 mi South 3.5 mph - N/A   Clear
4:53 AM -18.4 °F -31.4 °F -23.8 °F 76% 29.98 in 10.0 mi SSW 4.6 mph - N/A   Clear
5:13 AM -18.4 °F -31.4 °F -22.0 °F 84% 29.98 in 10.0 mi SW 4.6 mph - N/A   Clear
5:33 AM -16.6 °F -29.3 °F -20.2 °F 84% 29.97 in 10.0 mi WSW 4.6 mph - N/A   Clear
5:53 AM -16.6 °F -26.8 °F -20.2 °F 84% 29.96 in 10.0 mi SW 3.5 mph - N/A   Clear
6:13 AM -16.6 °F -26.8 °F -20.2 °F 84% 29.97 in 10.0 mi SW 3.5 mph - N/A   Clear
6:33 AM -18.4 °F - -23.8 °F 76% 29.97 in 10.0 mi Calm Calm - N/A   Clear
6:53 AM -18.4 °F - -23.8 °F 76% 29.98 in 10.0 mi Calm Calm - N/A   Clear
7:13 AM -18.4 °F - -22.0 °F 84% 29.97 in 10.0 mi Calm Calm - N/A   Clear
7:33 AM -16.6 °F - -20.2 °F 84% 29.98 in 10.0 mi Calm Calm - N/A   Clear
7:53 AM -18.4 °F - -23.8 °F 76% 29.97 in 10.0 mi Calm Calm - N/A   Clear
8:13 AM -20.2 °F -30.9 °F -25.6 °F 76% 29.98 in 10.0 mi SSW 3.5 mph - N/A   Clear
8:34 AM -16.6 °F -26.8 °F -20.2 °F 84% 29.98 in 10.0 mi South 3.5 mph - N/A   Clear
8:53 AM -16.6 °F -31.3 °F -20.2 °F 84% 29.98 in 10.0 mi South 5.8 mph - N/A   Clear
9:13 AM -16.6 °F -31.3 °F -20.2 °F 84% 29.98 in 10.0 mi South 5.8 mph - N/A   Clear
9:34 AM -13.0 °F -25.1 °F -16.6 °F 84% 29.98 in 10.0 mi South 4.6 mph - N/A   Clear
9:53 AM -9.4 °F -24.3 °F -14.8 °F 77% 29.98 in 10.0 mi SW 6.9 mph - N/A   Clear
10:13 AM -7.6 °F -20.6 °F -13.0 °F 77% 29.99 in 10.0 mi WSW 5.8 mph - N/A   Clear
10:33 AM -7.6 °F -18.8 °F -11.2 °F 84% 29.99 in 10.0 mi SW 4.6 mph - N/A   Clear
10:53 AM -5.8 °F -18.4 °F -11.2 °F 77% 30.00 in 10.0 mi SW 5.8 mph - N/A   Clear
11:13 AM -5.8 °F -18.4 °F -11.2 °F 77% 30.01 in 10.0 mi SW 5.8 mph - N/A   Clear
11:33 AM -2.2 °F -15.6 °F -11.2 °F 66% 30.00 in 10.0 mi SSW 6.9 mph - N/A   Clear
11:53 AM -2.2 °F -15.6 °F -11.2 °F 66% 29.99 in 10.0 mi SSW 6.9 mph - N/A   Clear
12:13 PM -0.4 °F - -11.2 °F 60% 29.98 in 10.0 mi Calm Calm - N/A   Clear
12:33 PM 1.4 °F -9.9 °F -9.4 °F 61% 29.97 in 10.0 mi West 5.8 mph - N/A   Clear
12:53 PM 1.4 °F -11.3 °F -9.4 °F 61% 29.97 in 10.0 mi SW 6.9 mph - N/A   Clear
1:13 PM 3.2 °F -12.2 °F -7.6 °F 61% 29.96 in 10.0 mi SSW 10.4 mph - N/A   Clear
1:33 PM 3.2 °F -12.2 °F -5.8 °F 66% 29.95 in 10.0 mi SW 10.4 mph - N/A   Clear
1:54 PM 5.0 °F -11.6 °F -5.8 °F 61% 29.94 in 10.0 mi SW 12.7 mph - N/A   Clear
2:13 PM 6.8 °F -5.9 °F -5.8 °F 56% 29.93 in 10.0 mi SW 8.1 mph - N/A   Clear
2:33 PM 6.8 °F -8.6 °F -4.0 °F 61% 29.93 in 10.0 mi SSW 11.5 mph 16.1 mph N/A   Clear
2:54 PM 6.8 °F -8.6 °F -2.2 °F 67% 29.93 in 10.0 mi SW 11.5 mph 17.3 mph N/A   Clear
3:13 PM 6.8 °F -4.8 °F -4.0 °F 61% 29.92 in 10.0 mi SSW 6.9 mph - N/A   Clear
3:33 PM 8.6 °F -1.3 °F -2.2 °F 62% 29.92 in 10.0 mi South 5.8 mph - N/A   Clear
3:54 PM 6.8 °F -7.8 °F -2.2 °F 67% 29.92 in 10.0 mi South 10.4 mph - N/A   Clear
4:13 PM 6.8 °F -7.8 °F -2.2 °F 67% 29.92 in 10.0 mi South 10.4 mph - N/A   Clear
4:33 PM 5.0 °F -9.1 °F -2.2 °F 72% 29.91 in 10.0 mi South 9.2 mph - N/A   Clear
4:54 PM 3.2 °F -12.2 °F -2.2 °F 78% 29.91 in 10.0 mi South 10.4 mph - N/A   Clear
5:13 PM 3.2 °F -12.2 °F -4.0 °F 72% 29.91 in 10.0 mi South 10.4 mph - N/A   Clear
5:33 PM 1.4 °F -11.3 °F -5.8 °F 72% 29.91 in 10.0 mi South 6.9 mph - N/A   Clear
5:54 PM -0.4 °F -12.0 °F -5.8 °F 78% 29.90 in 10.0 mi South 5.8 mph - N/A   Clear
6:13 PM -2.2 °F -14.2 °F -7.6 °F 78% 29.90 in 10.0 mi South 5.8 mph - N/A   Clear
6:33 PM -2.2 °F -14.2 °F -7.6 °F 78% 29.90 in 10.0 mi South 5.8 mph - N/A   Clear
6:54 PM -2.2 °F -14.2 °F -5.8 °F 85% 29.90 in 10.0 mi SSE 5.8 mph - N/A   Clear
7:13 PM -0.4 °F -12.0 °F -5.8 °F 78% 29.90 in 10.0 mi South 5.8 mph - N/A   Clear
7:33 PM -2.2 °F -15.6 °F -7.6 °F 78% 29.90 in 10.0 mi South 6.9 mph - N/A   Clear
7:54 PM -2.2 °F -14.2 °F -5.8 °F 85% 29.90 in 10.0 mi SSW 5.8 mph - N/A   Clear
8:13 PM -2.2 °F -16.8 °F -5.8 °F 85% 29.89 in 10.0 mi South 8.1 mph - N/A   Clear
8:33 PM -2.2 °F -16.8 °F -4.0 °F 92% 29.89 in 10.0 mi South 8.1 mph - N/A   Clear
8:54 PM -2.2 °F -12.5 °F -5.8 °F 85% 29.89 in 10.0 mi South 4.6 mph - N/A   Clear
9:13 PM -2.2 °F -10.4 °F -5.8 °F 85% 29.89 in 10.0 mi South 3.5 mph - N/A   Clear
9:33 PM -2.2 °F - -5.8 °F 85% 29.90 in 10.0 mi Calm Calm - N/A   Scattered Clouds
9:54 PM -2.2 °F -10.4 °F -4.0 °F 92% 29.90 in 10.0 mi South 3.5 mph - N/A   Mostly Cloudy
10:13 PM -2.2 °F -15.6 °F -5.8 °F 85% 29.89 in 10.0 mi South 6.9 mph - N/A   Overcast
10:33 PM -0.4 °F -12.0 °F -2.2 °F 92% 29.87 in 10.0 mi SSE 5.8 mph - N/A   Overcast
10:54 PM 1.4 °F -9.9 °F -2.2 °F 85% 29.87 in 10.0 mi South 5.8 mph - N/A   Overcast
11:13 PM 1.4 °F -8.3 °F -2.2 °F 85% 29.86 in 10.0 mi South 4.6 mph - N/A   Overcast
11:33 PM 1.4 °F -9.9 °F -0.4 °F 92% 29.86 in 10.0 mi South 5.8 mph - N/A   Overcast
11:54 PM 1.4 °F -8.3 °F -0.4 °F 92% 29.86 in 10.0 mi SSE 4.6 mph - N/A   Overcast